N582JR KPSP-KAPC

Flight info

Callsign N582JR
Flight time 1h 13m
Altitude 43000
Route YUCCA1 PMD COREZ RGOOD VNYRD1
Aircraft C25B/M-SBDE3FGJ4J7M3P2P3RWXYZ/LB1D1G1

Departure

Time 2026-05-07 02:23
Airport Palm Springs International Airport (KPSP)

Arrival

Time 2026-05-07 03:36
Airport Napa County Airport (KAPC)
Time Latitude Longitude Altitude Speed Heading
2026-05-07 02:09 33.82659 -116.50929 431 ft 0 kts 265°
2026-05-07 02:19 33.82647 -116.50942 427 ft 6 kts 184°
2026-05-07 02:19 33.82581 -116.50916 426 ft 13 kts 149°
2026-05-07 02:19 33.82536 -116.50808 421 ft 17 kts 93°
2026-05-07 02:19 33.82518 -116.50658 423 ft 19 kts 104°
2026-05-07 02:20 33.82498 -116.50551 420 ft 14 kts 144°
2026-05-07 02:20 33.82407 -116.50473 414 ft 18 kts 142°
2026-05-07 02:20 33.82294 -116.50369 412 ft 22 kts 143°
2026-05-07 02:20 33.82164 -116.50252 411 ft 24 kts 143°
2026-05-07 02:21 33.82023 -116.50127 407 ft 25 kts 144°
2026-05-07 02:21 33.81923 -116.50039 409 ft 17 kts 144°
2026-05-07 02:21 33.81852 -116.49939 407 ft 11 kts 91°
2026-05-07 02:21 33.81852 -116.49902 407 ft 0 kts 86°
2026-05-07 02:22 33.81852 -116.49898 407 ft 3 kts 86°
2026-05-07 02:22 33.81854 -116.49830 407 ft 13 kts 86°
2026-05-07 02:23 33.81915 -116.49832 406 ft 16 kts 324°
2026-05-07 02:23 33.82327 -116.50202 429 ft 132 kts 322°
2026-05-07 02:23 33.83295 -116.51014 895 ft 207 kts 325°
2026-05-07 02:23 33.84638 -116.52001 2122 ft 231 kts 327°
2026-05-07 02:24 33.85893 -116.53207 3803 ft 237 kts 318°
2026-05-07 02:24 33.87174 -116.54473 5194 ft 242 kts 322°
2026-05-07 02:24 33.88684 -116.55438 5906 ft 251 kts 344°
2026-05-07 02:24 33.90403 -116.55812 6823 ft 253 kts 356°
2026-05-07 02:25 33.92177 -116.55503 7408 ft 270 kts 15°
2026-05-07 02:25 33.93893 -116.54438 7892 ft 284 kts 38°
2026-05-07 02:25 33.95390 -116.52899 8644 ft 284 kts 33°
2026-05-07 02:25 33.97219 -116.51907 9044 ft 298 kts 20°
2026-05-07 02:26 33.99202 -116.51439 10016 ft 287 kts
2026-05-07 02:26 34.01242 -116.51499 10333 ft 305 kts 358°
2026-05-07 02:26 34.03368 -116.51632 10807 ft 311 kts 358°
2026-05-07 02:26 34.05519 -116.51796 11497 ft 310 kts 358°
2026-05-07 02:27 34.07673 -116.51926 12158 ft 310 kts 359°
2026-05-07 02:27 34.09821 -116.52084 12787 ft 310 kts 356°
2026-05-07 02:27 34.11929 -116.52721 13304 ft 315 kts 343°
2026-05-07 02:27 34.14018 -116.53553 13833 ft 317 kts 346°
2026-05-07 02:28 34.16137 -116.54337 14371 ft 320 kts 345°
2026-05-07 02:28 34.18259 -116.55197 14891 ft 323 kts 344°
2026-05-07 02:28 34.20372 -116.56029 15393 ft 324 kts 345°
2026-05-07 02:28 34.22525 -116.56852 15886 ft 326 kts 345°
2026-05-07 02:29 34.24688 -116.57737 16341 ft 329 kts 344°
2026-05-07 02:29 34.26869 -116.58599 16814 ft 331 kts 346°
2026-05-07 02:29 34.29073 -116.59435 17271 ft 333 kts 345°
2026-05-07 02:29 34.31281 -116.60314 17719 ft 335 kts 345°
2026-05-07 02:30 34.33507 -116.61196 18165 ft 337 kts 345°
2026-05-07 02:30 34.35744 -116.62079 18580 ft 340 kts 345°
2026-05-07 02:30 34.37999 -116.62963 18997 ft 341 kts 345°
2026-05-07 02:30 34.40228 -116.63846 19370 ft 343 kts 345°
2026-05-07 02:31 34.42501 -116.64744 19720 ft 345 kts 345°
2026-05-07 02:31 34.44684 -116.66019 20002 ft 353 kts 332°
2026-05-07 02:31 34.46662 -116.67740 20745 ft 343 kts 323°
2026-05-07 02:31 34.48267 -116.69737 22050 ft 320 kts 316°
2026-05-07 02:32 34.49552 -116.71938 22717 ft 325 kts 305°
2026-05-07 02:32 34.50544 -116.74438 23155 ft 333 kts 295°
2026-05-07 02:32 34.51176 -116.77158 23795 ft 334 kts 285°
2026-05-07 02:32 34.51479 -116.79931 24557 ft 333 kts 281°
2026-05-07 02:33 34.51761 -116.82695 25043 ft 337 kts 282°
2026-05-07 02:33 34.52033 -116.85527 25565 ft 340 kts 282°
2026-05-07 02:33 34.52310 -116.88395 26074 ft 343 kts 282°
2026-05-07 02:33 34.52587 -116.91282 26566 ft 347 kts 282°
2026-05-07 02:34 34.52872 -116.94199 27059 ft 350 kts 282°
2026-05-07 02:34 34.53152 -116.97145 27553 ft 353 kts 282°
2026-05-07 02:34 34.53439 -117.00113 28037 ft 356 kts 282°
2026-05-07 02:34 34.53724 -117.03106 28517 ft 359 kts 282°
2026-05-07 02:35 34.54010 -117.06129 28981 ft 362 kts 282°
2026-05-07 02:35 34.54304 -117.09174 29441 ft 366 kts 282°
2026-05-07 02:35 34.54593 -117.12256 29899 ft 369 kts 282°
2026-05-07 02:35 34.54885 -117.15315 30350 ft 372 kts 282°
2026-05-07 02:36 34.55177 -117.18443 30808 ft 374 kts 282°
2026-05-07 02:36 34.55477 -117.21584 31244 ft 377 kts 282°
2026-05-07 02:36 34.55771 -117.24763 31673 ft 380 kts 282°
2026-05-07 02:36 34.56069 -117.27955 32090 ft 382 kts 282°
2026-05-07 02:37 34.56374 -117.31177 32481 ft 386 kts 282°
2026-05-07 02:37 34.56674 -117.34419 32883 ft 389 kts 282°
2026-05-07 02:37 34.56980 -117.37692 33287 ft 391 kts 282°
2026-05-07 02:37 34.57279 -117.40984 33662 ft 394 kts 282°
2026-05-07 02:38 34.57587 -117.44300 34047 ft 397 kts 282°
2026-05-07 02:38 34.57898 -117.47636 34416 ft 399 kts 282°
2026-05-07 02:38 34.58199 -117.50951 34776 ft 402 kts 282°
2026-05-07 02:38 34.58507 -117.54330 35140 ft 404 kts 282°
2026-05-07 02:39 34.58821 -117.57725 35478 ft 406 kts 282°
2026-05-07 02:39 34.59131 -117.61135 35793 ft 408 kts 282°
2026-05-07 02:39 34.59444 -117.64568 36104 ft 411 kts 281°
2026-05-07 02:39 34.59739 -117.68024 36389 ft 413 kts 281°
2026-05-07 02:40 34.60057 -117.71498 36647 ft 415 kts 282°
2026-05-07 02:40 34.60380 -117.74979 36986 ft 415 kts 282°
2026-05-07 02:40 34.60690 -117.78456 37336 ft 415 kts 281°
2026-05-07 02:40 34.60977 -117.81904 37677 ft 416 kts 281°
2026-05-07 02:41 34.61281 -117.85396 38013 ft 417 kts 282°
2026-05-07 02:41 34.61616 -117.88896 38285 ft 419 kts 282°
2026-05-07 02:41 34.61931 -117.92425 38545 ft 422 kts 281°
2026-05-07 02:41 34.62231 -117.95974 38790 ft 424 kts 281°
2026-05-07 02:42 34.62541 -117.99540 39027 ft 426 kts 281°
2026-05-07 02:42 34.63040 -118.03054 39405 ft 414 kts 291°
2026-05-07 02:42 34.63601 -118.05233 39879 ft 405 kts 295°
2026-05-07 02:42 34.65224 -118.09265 40209 ft 399 kts 307°
2026-05-07 02:43 34.66851 -118.11965 40437 ft 395 kts 315°
2026-05-07 02:43 34.68585 -118.14562 40658 ft 397 kts 314°
2026-05-07 02:43 34.70319 -118.17190 40869 ft 399 kts 313°
2026-05-07 02:43 34.72061 -118.19829 41059 ft 401 kts 313°
2026-05-07 02:44 34.73220 -118.21573 41189 ft 401 kts 313°
2026-05-07 02:44 34.74973 -118.24220 41363 ft 403 kts 313°
2026-05-07 02:44 34.76734 -118.26880 41537 ft 404 kts 313°
2026-05-07 02:44 34.78495 -118.29552 41698 ft 405 kts 313°
2026-05-07 02:45 34.80831 -118.33092 41838 ft 406 kts 313°
2026-05-07 02:45 34.82025 -118.34902 41889 ft 406 kts 313°
2026-05-07 02:45 34.84371 -118.38456 41998 ft 407 kts 313°
2026-05-07 02:45 34.86139 -118.41145 42078 ft 407 kts 313°
2026-05-07 02:46 34.89085 -118.45623 42195 ft 408 kts 313°
2026-05-07 02:46 34.92625 -118.51014 42288 ft 405 kts 312°
2026-05-07 02:47 34.96155 -118.56389 42448 ft 408 kts 312°
2026-05-07 02:47 34.97930 -118.59097 42645 ft 409 kts 312°
2026-05-07 02:47 34.99707 -118.61819 42812 ft 411 kts 312°
2026-05-07 02:48 35.01496 -118.64547 42985 ft 412 kts 312°
2026-05-07 02:48 35.03262 -118.67250 43148 ft 413 kts 312°
2026-05-07 02:48 35.06849 -118.72749 43171 ft 411 kts 312°
2026-05-07 02:49 35.10367 -118.78142 43165 ft 402 kts 312°
2026-05-07 02:49 35.13816 -118.83441 43155 ft 395 kts 312°
2026-05-07 02:50 35.17225 -118.88685 43128 ft 395 kts 312°
2026-05-07 02:50 35.20722 -118.93874 43109 ft 401 kts 314°
2026-05-07 02:51 35.24218 -118.99256 43102 ft 406 kts 310°
2026-05-07 02:51 35.27678 -119.04661 43101 ft 400 kts 312°
2026-05-07 02:52 35.31117 -119.09983 43089 ft 397 kts 311°
2026-05-07 02:52 35.34511 -119.15281 43085 ft 394 kts 312°
2026-05-07 02:53 35.37871 -119.20513 43080 ft 392 kts 311°
2026-05-07 02:53 35.41195 -119.25703 43077 ft 392 kts 311°
2026-05-07 02:54 35.44557 -119.30960 43085 ft 391 kts 311°
2026-05-07 02:54 35.47911 -119.36212 43084 ft 391 kts 311°
2026-05-07 02:55 35.51268 -119.41475 43085 ft 392 kts 311°
2026-05-07 02:55 35.54629 -119.46754 43086 ft 392 kts 311°
2026-05-07 02:56 35.57967 -119.52004 43088 ft 393 kts 311°
2026-05-07 02:56 35.61331 -119.57303 43089 ft 393 kts 311°
2026-05-07 02:57 35.64693 -119.62608 43090 ft 394 kts 311°
2026-05-07 02:57 35.68057 -119.67923 43091 ft 394 kts 311°
2026-05-07 02:58 35.71420 -119.73247 43093 ft 394 kts 311°
2026-05-07 02:58 35.74758 -119.78538 43094 ft 394 kts 311°
2026-05-07 02:59 35.78115 -119.83868 43095 ft 394 kts 311°
2026-05-07 02:59 35.81947 -119.88550 43084 ft 386 kts 330°
2026-05-07 03:00 35.84342 -119.89988 43084 ft 382 kts 342°
2026-05-07 03:00 35.86916 -119.90718 43085 ft 380 kts 354°
2026-05-07 03:00 35.89514 -119.90776 43085 ft 379 kts
2026-05-07 03:00 35.92096 -119.90164 43084 ft 379 kts 16°
2026-05-07 03:01 35.97217 -119.88793 43084 ft 378 kts
2026-05-07 03:01 36.02424 -119.89689 43086 ft 380 kts 347°
2026-05-07 03:02 36.07354 -119.92105 43089 ft 382 kts 338°
2026-05-07 03:02 36.12269 -119.94576 43092 ft 381 kts 343°
2026-05-07 03:03 36.17218 -119.96826 43095 ft 382 kts 340°
2026-05-07 03:03 36.22168 -119.99207 43094 ft 382 kts 341°
2026-05-07 03:04 36.27085 -120.01752 43086 ft 385 kts 332°
2026-05-07 03:04 36.31318 -120.05845 43086 ft 389 kts 319°
2026-05-07 03:05 36.35262 -120.10386 43088 ft 390 kts 320°
2026-05-07 03:05 36.39239 -120.14971 43091 ft 391 kts 319°
2026-05-07 03:06 36.43215 -120.19564 43094 ft 391 kts 319°
2026-05-07 03:06 36.47201 -120.24174 43096 ft 391 kts 319°
2026-05-07 03:07 36.51189 -120.28793 43097 ft 392 kts 319°
2026-05-07 03:07 36.55149 -120.33388 43097 ft 392 kts 319°
2026-05-07 03:08 36.59135 -120.38019 43100 ft 392 kts 319°
2026-05-07 03:08 36.63122 -120.42660 43099 ft 393 kts 319°
2026-05-07 03:09 36.67112 -120.47310 43102 ft 393 kts 319°
2026-05-07 03:09 36.71072 -120.51932 43101 ft 393 kts 319°
2026-05-07 03:10 36.75059 -120.56593 43110 ft 393 kts 318°
2026-05-07 03:10 36.79039 -120.61253 43116 ft 393 kts 318°
2026-05-07 03:11 36.83029 -120.65930 42889 ft 396 kts 318°
2026-05-07 03:11 36.85025 -120.68275 42384 ft 391 kts 318°
2026-05-07 03:11 36.86997 -120.70588 41866 ft 387 kts 319°
2026-05-07 03:12 36.88919 -120.72850 41361 ft 382 kts 319°
2026-05-07 03:12 36.90848 -120.75116 40853 ft 379 kts 319°
2026-05-07 03:12 36.92760 -120.77368 40343 ft 377 kts 319°
2026-05-07 03:12 36.94665 -120.79610 39842 ft 376 kts 319°
2026-05-07 03:13 36.96569 -120.81856 39338 ft 375 kts 319°
2026-05-07 03:13 36.98471 -120.84096 38842 ft 379 kts 319°
2026-05-07 03:13 37.00398 -120.86424 38327 ft 391 kts 316°
2026-05-07 03:13 37.02072 -120.89140 37806 ft 397 kts 307°
2026-05-07 03:14 37.03483 -120.92049 37288 ft 394 kts 304°
2026-05-07 03:14 37.04883 -120.94969 36772 ft 389 kts 304°
2026-05-07 03:14 37.07668 -121.00706 35757 ft 382 kts 304°
2026-05-07 03:15 37.09032 -121.03544 35252 ft 380 kts 304°
2026-05-07 03:15 37.10393 -121.06372 34739 ft 377 kts 304°
2026-05-07 03:15 37.11745 -121.09189 34244 ft 379 kts 304°
2026-05-07 03:15 37.13112 -121.12030 33738 ft 383 kts 303°
2026-05-07 03:16 37.14501 -121.14895 33227 ft 386 kts 303°
2026-05-07 03:16 37.15878 -121.17805 32703 ft 392 kts 303°
2026-05-07 03:16 37.17290 -121.20732 32193 ft 402 kts 303°
2026-05-07 03:16 37.18748 -121.23759 31647 ft 409 kts 303°
2026-05-07 03:17 37.20217 -121.26843 31108 ft 414 kts 303°
2026-05-07 03:17 37.21701 -121.29955 30546 ft 417 kts 303°
2026-05-07 03:17 37.23201 -121.33085 29997 ft 419 kts 303°
2026-05-07 03:17 37.24702 -121.36227 29438 ft 418 kts 303°
2026-05-07 03:18 37.26158 -121.39296 28892 ft 410 kts 303°
2026-05-07 03:18 37.27611 -121.42346 28358 ft 404 kts 303°
2026-05-07 03:18 37.29043 -121.45345 27825 ft 398 kts 303°
2026-05-07 03:18 37.30451 -121.48315 27301 ft 395 kts 303°
2026-05-07 03:19 37.31862 -121.51277 26775 ft 395 kts 303°
2026-05-07 03:19 37.33267 -121.54245 26250 ft 395 kts 303°
2026-05-07 03:19 37.34689 -121.57230 25720 ft 403 kts 303°
2026-05-07 03:19 37.36134 -121.60288 25181 ft 411 kts 303°
2026-05-07 03:20 37.37607 -121.63402 24625 ft 417 kts 303°
2026-05-07 03:20 37.39095 -121.66548 24077 ft 421 kts 303°
2026-05-07 03:20 37.40578 -121.69682 23515 ft 423 kts 302°
2026-05-07 03:20 37.42078 -121.72872 22953 ft 425 kts 302°
2026-05-07 03:21 37.43592 -121.76078 22386 ft 426 kts 303°
2026-05-07 03:21 37.45105 -121.79289 21818 ft 427 kts 302°
2026-05-07 03:21 37.46617 -121.82506 21243 ft 427 kts 302°
2026-05-07 03:21 37.48133 -121.85718 20683 ft 427 kts 302°
2026-05-07 03:22 37.49674 -121.88899 20104 ft 424 kts 306°
2026-05-07 03:22 37.51551 -121.91738 19560 ft 418 kts 313°
2026-05-07 03:22 37.53445 -121.94426 19027 ft 403 kts 313°
2026-05-07 03:22 37.55252 -121.97014 18507 ft 394 kts 313°
2026-05-07 03:23 37.57012 -121.99610 17984 ft 386 kts 312°
2026-05-07 03:23 37.58752 -122.02152 17473 ft 380 kts 313°
2026-05-07 03:23 37.60478 -122.04652 16955 ft 375 kts 313°
2026-05-07 03:23 37.62179 -122.07130 16460 ft 372 kts 313°
2026-05-07 03:24 37.63859 -122.09592 16046 ft 367 kts 312°
2026-05-07 03:24 37.65501 -122.11982 16032 ft 354 kts 313°
2026-05-07 03:24 37.67081 -122.14297 16026 ft 343 kts 312°
2026-05-07 03:24 37.68603 -122.16522 16022 ft 336 kts 313°
2026-05-07 03:25 37.70120 -122.18733 16032 ft 330 kts 312°
2026-05-07 03:25 37.71606 -122.20919 16038 ft 326 kts 313°
2026-05-07 03:25 37.73103 -122.23039 16044 ft 321 kts 316°
2026-05-07 03:25 37.74710 -122.24989 16041 ft 319 kts 318°
2026-05-07 03:26 37.76282 -122.26957 16038 ft 318 kts 316°
2026-05-07 03:26 37.77939 -122.28763 15975 ft 313 kts 333°
2026-05-07 03:26 37.80011 -122.29308 16024 ft 305 kts
2026-05-07 03:26 37.82041 -122.28593 16032 ft 303 kts 22°
2026-05-07 03:27 37.83988 -122.27549 15627 ft 316 kts 23°
2026-05-07 03:27 37.86092 -122.26586 15103 ft 328 kts 17°
2026-05-07 03:27 37.88350 -122.25932 14586 ft 336 kts 12°
2026-05-07 03:27 37.90634 -122.25330 14065 ft 332 kts 14°
2026-05-07 03:28 37.92845 -122.24593 13548 ft 325 kts 16°
2026-05-07 03:28 37.95008 -122.23862 13020 ft 319 kts 15°
2026-05-07 03:28 37.97148 -122.23193 12502 ft 315 kts 15°
2026-05-07 03:28 37.99236 -122.22419 11961 ft 308 kts 25°
2026-05-07 03:29 38.00932 -122.20896 11428 ft 301 kts 42°
2026-05-07 03:29 38.02455 -122.19110 10902 ft 296 kts 43°
2026-05-07 03:29 38.03925 -122.17300 10379 ft 293 kts 44°
2026-05-07 03:29 38.05355 -122.15480 9851 ft 290 kts 44°
2026-05-07 03:30 38.06816 -122.13754 9320 ft 284 kts 34°
2026-05-07 03:30 38.08555 -122.12589 8782 ft 282 kts 23°
2026-05-07 03:30 38.10319 -122.11530 8259 ft 280 kts 24°
2026-05-07 03:30 38.12085 -122.10495 7734 ft 278 kts 22°
2026-05-07 03:31 38.13840 -122.09503 7209 ft 274 kts 20°
2026-05-07 03:31 38.15615 -122.08824 6689 ft 267 kts 13°
2026-05-07 03:31 38.17394 -122.08231 6165 ft 261 kts 13°
2026-05-07 03:31 38.19114 -122.07671 5637 ft 249 kts 11°
2026-05-07 03:32 38.20775 -122.07779 5078 ft 238 kts 340°
2026-05-07 03:32 38.22051 -122.09039 4526 ft 232 kts 309°
2026-05-07 03:32 38.22957 -122.10707 3989 ft 227 kts 305°
2026-05-07 03:32 38.23798 -122.12325 3481 ft 209 kts 304°
2026-05-07 03:33 38.24537 -122.13821 2947 ft 191 kts 297°
2026-05-07 03:33 38.24640 -122.15381 2388 ft 174 kts 256°
2026-05-07 03:33 38.24195 -122.16703 2001 ft 148 kts 247°
2026-05-07 03:33 38.23826 -122.17658 2035 ft 102 kts 243°
2026-05-07 03:34 38.23470 -122.18548 2111 ft 123 kts 244°
2026-05-07 03:34 38.23059 -122.19516 2143 ft 129 kts 244°
2026-05-07 03:34 38.22652 -122.20538 2007 ft 128 kts 245°
2026-05-07 03:34 38.22291 -122.21556 1645 ft 122 kts 247°
2026-05-07 03:35 38.22002 -122.22505 1372 ft 108 kts 252°
2026-05-07 03:35 38.21788 -122.23380 1103 ft 100 kts 254°
2026-05-07 03:35 38.21623 -122.24217 848 ft 96 kts 256°
2026-05-07 03:35 38.21473 -122.25033 616 ft 96 kts 255°
2026-05-07 03:36 38.21308 -122.25852 396 ft 93 kts 257°
2026-05-07 03:36 38.21174 -122.26633 179 ft 88 kts 257°
2026-05-07 03:36 38.21042 -122.27374 28 ft 83 kts 258°
2026-05-07 03:36 38.20931 -122.27974 14 ft 49 kts 256°
2026-05-07 03:37 38.20880 -122.28261 11 ft 26 kts 258°
2026-05-07 03:37 38.20848 -122.28454 10 ft 19 kts 271°
2026-05-07 03:37 38.20944 -122.28456 11 ft 17 kts 24°
2026-05-07 03:37 38.21069 -122.28397 14 ft 21 kts 18°
2026-05-07 03:38 38.21218 -122.28331 15 ft 25 kts 22°
2026-05-07 03:38 38.21383 -122.28249 17 ft 22 kts 18°
2026-05-07 03:38 38.21477 -122.28156 18 ft 18 kts 69°
2026-05-07 03:38 38.21519 -122.27997 19 ft 20 kts 71°
2026-05-07 03:39 38.21569 -122.27809 16 ft 24 kts 72°
2026-05-07 03:39 38.21614 -122.27636 15 ft 13 kts 71°
2026-05-07 03:39 38.21643 -122.27531 15 ft 14 kts 70°
2026-05-07 03:39 38.21647 -122.27517 15 ft 1 kts 69°
2026-05-07 03:40 38.21664 -122.27520 15 ft 8 kts 306°
2026-05-07 03:40 38.21725 -122.27574 14 ft 13 kts 333°
2026-05-07 03:40 38.21816 -122.27632 13 ft 13 kts 332°
2026-05-07 03:40 38.21842 -122.27626 13 ft 6 kts 74°
2026-05-07 03:41 38.21827 -122.27560 14 ft 10 kts 112°
2026-05-07 03:41 38.21824 -122.27486 14 ft 0 kts 66°
2026-05-07 03:41 38.21828 -122.27477 14 ft 6 kts 62°
2026-05-07 03:41 38.21835 -122.27461 15 ft 0 kts 60°